Home > Time Zones > World Clock > Weather > Norway > Oslo > Past weeks

Flag for Norway Weather past 2 weeks in Oslo, Norway

Now
60 °F

Cool.


Feels Like: 58 °F
Forecast: 59 / 72 °F
Wind: 8 mph from Southwest

Location: Oslo-Blindern

Current Time: Jul 6, 2015 at 6:44:10 PM

Latest Report: Jul 6, 2015 at 6:00 PM


Visibility: N/A

Pressure: 29.59 "Hg

Humidity: 66%

Dew point: 48 °F

Location of OsloLocation

Historic Weather in Oslo — Graph

°F

Oslo temperature yesterday

Maximum temperature yesterday: 80 °F (at 4:00 PM)
Minimum temperature yesterday: 60 °F (at 3:00 AM)
Average temperature yesterday: 70 °F

Past Weeks' High & Low Weather Summary

 TemperatureHumidityPressure
High80 °F (Jul 5, 4:00 PM)98% (Jun 25, 2:00 AM)30.34 "Hg (Jun 25, 2:00 AM)
Low48 °F (Jun 26, 12:00 AM)31% (Jul 2, 4:00 PM)29.53 "Hg (Jul 6, 3:00 PM)
Average63 °F69%29.95 "Hg
* Reported Jun 21 5:00 PM — Jul 6 5:00 PM, Oslo, Weather by CustomWeather, © 2015

Note: Actual official high and low records may vary slightly from our data, if they occured in-between our weather recording intervals... More about our weather records

Advertising

Oslo weather history for previous 24 hours

 ConditionsComfort  
Time TempWeatherWind HumidityBarometerVisibility
5:00 PM
Mon, Jul 6
64 °FOvercast.5 mph74%29.56 "Hg43 mi
4:00 PM60 °FCool.5 mph85%29.56 "HgN/A
3:00 PM67 °FMild.7 mph71%29.53 "HgN/A
2:00 PM67 °FOvercast.7 mph78%29.54 "Hg19 mi
1:00 PM63 °FMild.6 mph88%29.55 "HgN/A
12:00 PM64 °FMild.7 mph88%29.56 "HgN/A
11:00 AM65 °FMild.6 mph93%29.55 "HgN/A
10:00 AM66 °FMild.5 mph94%29.57 "HgN/A
9:00 AM65 °FMild.5 mph92%29.58 "HgN/A
8:00 AM65 °FLow clouds.3 mph91%29.61 "Hg16 mi
7:00 AM64 °FMild.6 mph91%29.63 "HgN/A
6:00 AM63 °FMild.3 mph92%29.69 "HgN/A
5:00 AM63 °FRain. Overcast.2 mph93%29.73 "Hg6 mi
4:00 AM64 °FMild.1 mph86%29.77 "HgN/A
3:00 AM64 °FMild.1 mph81%29.79 "HgN/A
2:00 AM64 °FOvercast.1 mph79%29.83 "Hg19 mi
1:00 AM64 °FMild.1 mph78%29.83 "HgN/A
12:00 AM66 °FMild.1 mph75%29.85 "HgN/A
11:00 PM
Sun, Jul 5
68 °FOvercast.1 mph66%29.86 "Hg19 mi
10:00 PM71 °FMild.2 mph60%29.87 "HgN/A
9:00 PM74 °FMild.3 mph59%29.87 "HgN/A
8:00 PM77 °FScattered clouds.2 mph51%29.89 "Hg9 mi
7:00 PM77 °FWarm.3 mph47%29.92 "HgN/A
6:00 PM79 °FWarm.3 mph43%29.93 "HgN/A
Weather by CustomWeather, © 2015

See weather overviewHow to use our weather pages